Total_Precipitation_Accumulation
0.01 0.01 0.04 0.13 0.22 0.26 0.24 0.27 0.36 0.48 0.52 0.53 0.54 0.64 0.68 0.65 1.04 1.98 1.40 0.88 0.70 0.53 0.37 0.27 0.25 0.22 0.22 0.21 0.22 0.22 0.22 0.22 0.19 0.16 0.14 0.14 0.12 0.12 0.12 0.13 0.15 0.20 0.22 0.20 0.19 0.19 0.19 0.19 0.17
0.01 0.01 0.03 0.11 0.20 0.20 0.20 0.25 0.41 0.54 0.56 0.50 0.51 0.55 0.58 0.65 0.61 0.72 0.72 0.62 0.55 0.50 0.47 0.35 0.31 0.26 0.23 0.23 0.25 0.26 0.23 0.20 0.18 0.16 0.15 0.14 0.13 0.14 0.15 0.16 0.18 0.24 0.27 0.25 0.20 0.19 0.16 0.17 0.18
0.01 0.02 0.05 0.09 0.13 0.15 0.24 0.33 0.46 0.58 0.61 0.55 0.63 0.73 0.80 0.75 0.71 0.66 0.61 0.53 0.47 0.44 0.43 0.41 0.34 0.30 0.27 0.26 0.28 0.30 0.30 0.24 0.22 0.21 0.20 0.20 0.18 0.18 0.20 0.24 0.28 0.30 0.30 0.31 0.28 0.25 0.22 0.21 0.19
0.01 0.02 0.04 0.06 0.08 0.09 0.18 0.32 0.43 0.53 0.62 0.58 0.62 0.91 0.95 0.71 0.72 0.67 0.65 0.53 0.42 0.45 0.44 0.41 0.39 0.37 0.38 0.37 0.36 0.35 0.33 0.29 0.28 0.27 0.26 0.24 0.24 0.25 0.29 0.35 0.41 0.40 0.38 0.41 0.40 0.36 0.30 0.25 0.24
0.01 0.03 0.06 0.05 0.06 0.09 0.15 0.26 0.41 0.50 0.59 0.56 0.60 0.91 1.15 0.97 0.77 0.70 0.62 0.46 0.39 0.49 0.54 0.44 0.46 0.46 0.46 0.47 0.45 0.44 0.40 0.37 0.37 0.37 0.32 0.30 0.30 0.33 0.37 0.43 0.45 0.45 0.46 0.48 0.45 0.38 0.30 0.27 0.27
0.02 0.05 0.09 0.07 0.07 0.11 0.16 0.18 0.33 0.54 0.61 0.63 0.69 1.04 1.52 1.46 1.00 0.73 0.71 0.59 0.51 0.51 0.50 0.50 0.50 0.53 0.53 0.56 0.60 0.59 0.53 0.49 0.47 0.46 0.42 0.37 0.35 0.37 0.43 0.47 0.48 0.48 0.46 0.43 0.42 0.39 0.35 0.34 0.33
0.04 0.07 0.09 0.08 0.09 0.15 0.19 0.21 0.32 0.45 0.56 0.65 0.69 1.13 1.49 1.46 1.19 0.94 0.87 0.75 0.67 0.62 0.62 0.68 0.71 0.73 0.76 0.77 0.76 0.77 0.70 0.64 0.59 0.53 0.45 0.41 0.40 0.42 0.46 0.53 0.56 0.55 0.48 0.44 0.42 0.41 0.38 0.37 0.36
0.04 0.07 0.07 0.06 0.10 0.18 0.22 0.27 0.34 0.38 0.58 0.63 0.68 1.10 1.50 1.56 1.39 1.37 1.35 1.20 1.05 1.03 1.04 1.08 1.07 0.99 0.89 0.85 0.88 0.86 0.79 0.72 0.65 0.55 0.48 0.47 0.50 0.55 0.64 0.59 0.59 0.59 0.57 0.53 0.52 0.46 0.41 0.41 0.40
0.04 0.06 0.07 0.05 0.09 0.18 0.25 0.33 0.36 0.41 0.56 0.80 0.79 0.93 1.31 1.49 1.54 1.64 1.70 1.56 1.61 1.63 1.63 1.52 1.43 1.25 1.24 1.15 0.96 1.00 0.91 0.82 0.74 0.69 0.63 0.64 0.72 0.89 0.97 0.80 0.83 0.77 0.75 0.72 0.73 0.69 0.64 0.57 0.50
0.05 0.06 0.08 0.06 0.09 0.18 0.25 0.31 0.34 0.46 0.63 0.95 1.01 1.09 1.32 1.57 1.87 1.96 1.83 1.77 1.86 2.11 2.04 1.77 1.75 1.70 1.58 1.46 1.37 1.34 1.16 1.08 0.98 1.07 0.98 1.03 1.32 1.44 1.26 1.25 1.15 1.14 1.09 0.97 0.96 0.94 0.83 0.73 0.71
0.05 0.07 0.08 0.11 0.15 0.21 0.28 0.36 0.40 0.51 0.82 1.07 1.25 1.45 1.58 1.86 2.08 2.19 2.16 2.06 2.09 2.10 1.95 2.05 2.19 2.04 2.01 2.10 2.03 1.82 1.73 1.62 1.43 1.51 1.45 1.53 1.53 1.44 1.45 1.58 1.52 1.43 1.36 1.39 1.42 1.25 1.05 1.06 1.13
0.05 0.07 0.11 0.16 0.22 0.27 0.35 0.46 0.57 0.61 0.85 1.15 1.31 1.66 1.96 2.23 2.33 2.42 2.51 2.38 2.45 2.33 2.12 2.19 2.20 2.19 2.29 2.30 2.32 2.31 2.24 2.18 2.06 2.00 1.76 1.87 1.93 1.94 1.94 2.07 2.05 2.05 2.05 2.06 1.97 1.78 1.60 1.46 1.44
0.05 0.06 0.12 0.23 0.29 0.32 0.43 0.57 0.62 0.71 0.82 1.00 1.28 1.56 1.65 1.93 2.29 2.82 2.85 2.96 3.12 2.97 2.69 2.51 2.60 2.49 2.46 2.58 2.66 2.42 2.49 2.51 2.64 2.58 2.26 2.29 2.32 2.32 2.50 2.50 2.57 2.50 2.65 2.57 2.38 2.13 2.00 1.87 1.62
0.06 0.10 0.14 0.23 0.31 0.40 0.48 0.59 0.61 0.77 0.95 1.00 1.12 1.34 1.64 1.83 2.03 2.51 2.96 3.15 3.33 3.42 3.18 2.87 2.78 2.82 2.74 2.86 3.04 2.89 2.69 2.77 2.81 2.92 2.72 2.68 2.72 2.76 2.82 2.86 2.91 2.73 2.72 2.75 2.65 2.35 2.23 2.09 1.87
0.07 0.14 0.21 0.25 0.27 0.33 0.41 0.62 0.63 0.73 1.00 1.22 1.24 1.33 1.66 2.05 2.28 2.64 3.04 3.36 3.64 3.61 3.31 3.22 3.01 3.20 3.37 3.58 3.51 3.47 3.41 3.37 3.27 3.20 3.23 3.09 3.06 3.11 3.06 3.21 3.27 3.11 3.02 2.98 2.91 2.76 2.51 2.35 2.23
0.11 0.22 0.33 0.33 0.29 0.24 0.39 0.74 0.79 0.80 1.07 1.23 1.39 1.56 1.73 2.03 2.33 2.70 2.98 3.19 3.51 3.55 3.50 3.59 3.36 3.41 3.64 3.65 3.60 3.71 3.89 3.89 3.75 3.60 3.63 3.48 3.49 3.56 3.65 3.54 3.38 3.29 3.21 3.19 3.31 3.11 2.78 2.67 2.69
0.13 0.21 0.28 0.35 0.32 0.29 0.40 0.71 0.78 0.81 1.05 1.18 1.24 1.42 1.62 1.82 2.09 2.43 2.86 3.17 3.35 3.44 3.39 3.58 3.76 3.58 3.73 3.83 3.88 4.05 4.17 4.29 4.20 4.09 3.98 3.91 3.92 3.89 4.00 3.91 3.70 3.52 3.43 3.45 3.21 3.19 3.09 3.07 2.98
0.12 0.13 0.18 0.25 0.27 0.30 0.40 0.62 0.79 0.82 1.07 1.12 1.29 1.29 1.46 1.74 2.01 2.33 2.86 3.24 3.34 3.48 3.50 3.61 3.93 3.91 4.18 4.24 4.06 4.15 4.19 4.32 4.39 4.44 4.38 4.42 4.45 4.34 4.30 4.14 4.00 3.88 3.73 3.63 3.49 3.45 3.38 3.20 3.06
0.10 0.12 0.19 0.24 0.26 0.32 0.45 0.66 0.87 0.93 1.10 1.18 1.35 1.42 1.71 1.86 2.00 2.32 2.79 3.22 3.66 3.71 3.80 3.76 3.86 4.10 4.28 4.43 4.38 4.51 4.48 4.43 4.63 4.82 4.82 4.91 4.98 4.81 4.75 4.61 4.46 4.21 3.95 3.79 3.65 3.50 3.35 3.10 3.01
0.11 0.13 0.24 0.35 0.37 0.42 0.53 0.72 0.93 1.06 1.05 1.29 1.56 1.63 2.12 2.25 2.19 2.36 2.86 3.26 3.64 3.85 3.94 4.08 4.19 4.19 4.34 4.80 5.20 5.49 5.75 5.77 5.68 5.77 5.82 5.64 5.50 5.41 5.26 5.17 4.89 4.51 4.24 3.94 3.68 3.50 3.24 2.99 2.95
0.14 0.17 0.27 0.43 0.42 0.52 0.67 1.07 1.19 1.17 1.19 1.38 1.70 1.82 2.19 2.35 2.45 2.32 2.45 2.85 3.28 3.62 3.83 3.96 4.21 4.56 5.06 5.66 6.07 6.35 6.61 6.68 6.45 6.21 6.08 5.86 5.65 5.51 5.19 4.97 4.83 4.52 4.08 3.81 3.63 3.44 3.21 2.99 2.90
0.14 0.14 0.21 0.30 0.40 0.61 0.64 1.23 1.44 1.39 1.47 1.58 1.76 1.79 2.02 2.04 2.24 2.34 2.35 2.58 2.92 3.23 3.55 3.88 4.20 4.80 5.68 6.35 6.74 7.08 7.17 7.07 6.91 6.69 6.29 5.78 5.42 5.12 4.83 4.57 4.30 4.03 3.67 3.42 3.22 3.14 3.09 2.98 2.80
0.07 0.10 0.16 0.21 0.29 0.46 0.54 1.05 1.42 1.41 1.58 1.74 1.95 1.93 1.92 2.01 1.95 2.02 2.09 2.27 2.65 2.99 3.32 3.72 4.12 4.79 5.47 6.08 6.65 7.08 7.20 7.11 6.88 6.42 5.87 5.27 4.81 4.41 4.06 3.81 3.57 3.32 3.04 2.82 2.63 2.59 2.69 2.73 2.66
0.05 0.11 0.20 0.28 0.43 0.69 0.58 0.90 1.51 1.67 1.84 2.02 2.02 2.08 2.27 2.19 2.03 2.00 1.93 1.99 2.24 2.60 2.92 3.37 3.80 4.33 4.93 5.34 5.87 6.21 6.37 6.24 5.85 5.34 4.73 4.30 3.98 3.68 3.35 3.06 2.83 2.57 2.34 2.20 2.12 2.07 2.12 2.25 2.31
0.08 0.19 0.52 0.65 0.75 0.82 0.59 0.97 1.70 1.90 1.87 2.03 2.12 2.21 2.35 2.29 2.19 2.07 1.98 1.94 2.06 2.32 2.62 2.89 3.14 3.59 3.92 4.26 4.71 4.97 4.94 4.72 4.45 4.18 3.95 3.56 3.14 2.79 2.56 2.29 2.08 1.88 1.78 1.76 1.78 1.80 1.84 1.88 1.93
0.10 0.18 0.54 0.86 0.82 0.79 0.87 1.50 2.08 2.00 1.83 1.80 1.92 2.05 2.11 2.01 1.99 1.95 1.91 1.95 2.01 1.99 2.19 2.37 2.47 2.69 2.90 3.09 3.28 3.32 3.27 3.20 3.16 3.04 2.77 2.48 2.15 1.86 1.74 1.66 1.52 1.48 1.49 1.45 1.49 1.54 1.58 1.62 1.63
0.10 0.17 0.23 0.44 0.55 0.88 1.38 1.94 2.34 2.06 1.94 1.90 1.77 1.64 1.80 1.80 1.76 1.81 1.87 1.94 1.92 1.84 1.83 1.92 1.95 1.96 2.03 2.10 2.21 2.23 2.19 2.18 2.18 2.12 1.96 1.77 1.64 1.46 1.33 1.31 1.28 1.26 1.30 1.31 1.32 1.31 1.27 1.33 1.42
0.11 0.16 0.24 0.43 0.87 1.18 1.54 2.07 2.58 2.50 2.39 2.35 2.06 1.73 1.81 1.82 1.82 1.77 1.71 1.74 1.78 1.67 1.66 1.75 1.78 1.65 1.59 1.52 1.51 1.50 1.57 1.60 1.61 1.58 1.46 1.39 1.33 1.25 1.16 1.07 1.05 1.01 1.01 1.07 1.19 1.20 1.16 1.16 1.17
0.16 0.21 0.28 0.48 0.69 1.13 1.77 2.40 2.37 2.59 2.69 2.51 2.17 1.85 1.84 1.79 1.81 1.83 1.74 1.61 1.57 1.54 1.55 1.48 1.47 1.44 1.36 1.28 1.27 1.22 1.19 1.21 1.19 1.11 1.06 1.04 1.04 1.02 0.96 0.89 0.85 0.82 0.81 0.86 0.97 1.03 1.03 1.06 1.04
0.21 0.24 0.29 0.59 0.70 0.82 1.53 2.45 2.39 2.64 2.75 2.54 2.41 2.17 1.98 1.98 1.89 1.78 1.71 1.61 1.57 1.45 1.41 1.35 1.30 1.24 1.17 1.16 1.17 1.08 1.03 1.03 1.08 1.04 0.95 0.90 0.90 0.88 0.85 0.82 0.79 0.75 0.77 0.84 0.87 0.88 0.86 0.92 0.90